Date String (YYYY-MM-DD hh:mm:ss) UTC,Instrument flags,Ambient pressure (hPa),Sample flow (lpm),Bypass flow (lpm),Sample temperature (°C),Ambient temperature (°C),ASC tube jacket temperature (°C),LED temperature (°C),Box temperature (°C),Sample RH (%),Span deviation,Mass concentration (μg/m³),Mass concentration (μg/m³),Mass concentration (μg/m³)
DateTimeUTC,F1_M11,P_M11,Q1_M11,Q2_M11,T1_M11,T2_M11,T3_M11,T4_M11,T5_M11,U1_M11,ZSPAN_M11,X0_M11,X2_M11,X1_M11
2022-05-14 05:00:00,,0826.1,5.01,0.00,29.9,29.0,00.0,38.7,31.6,04.3,0000.0,0009.46,0004.03,0003.04
2022-05-14 05:01:00,,0826.0,5.00,0.00,29.9,29.0,00.0,38.8,31.7,04.2,0000.0,0009.35,0004.02,0003.03
2022-05-14 05:02:00,,0826.0,4.98,0.00,29.9,29.0,00.0,38.8,31.6,04.3,0000.0,0009.58,0004.02,0003.02
2022-05-14 05:03:00,,0826.1,5.00,0.00,29.9,29.0,00.0,38.8,31.7,04.3,0000.0,0009.15,0004.04,0003.03
2022-05-14 05:04:00,,0826.0,5.00,0.00,29.9,29.0,00.0,38.8,31.7,04.5,0000.0,0009.12,0004.05,0003.04
2022-05-14 05:05:00,,0826.0,5.00,0.00,29.9,29.0,00.0,38.8,31.7,04.2,0000.0,0009.12,0004.03,0003.00
2022-05-14 05:06:00,,0826.0,5.01,0.00,29.9,29.0,00.0,38.8,31.7,03.9,0000.0,0009.05,0004.03,0002.99
2022-05-14 05:07:00,,0826.0,4.99,0.00,29.9,29.0,00.0,38.8,31.7,03.8,0000.0,0008.95,0004.02,0002.99
2022-05-14 05:08:00,,0826.0,4.99,0.00,30.0,29.1,00.0,38.8,31.7,03.7,0000.0,0008.92,0004.04,0002.99
2022-05-14 05:09:00,,0826.0,5.01,0.00,30.0,29.1,00.0,38.8,31.8,03.7,0000.0,0009.14,0004.11,0003.00
2022-05-14 05:10:00,,0826.0,5.00,0.00,30.0,29.1,00.0,38.8,31.7,03.7,0000.0,0009.36,0004.15,0003.00
2022-05-14 05:11:00,,0826.0,4.99,0.00,30.0,29.1,00.0,38.9,31.7,03.7,0000.0,0009.21,0004.14,0002.98
2022-05-14 05:12:00,,0826.0,4.99,0.00,30.0,29.2,00.0,38.9,31.8,04.3,0000.0,0008.94,0004.13,0002.99
2022-05-14 05:13:00,,0826.0,5.01,0.00,30.0,29.2,00.0,38.9,31.8,04.3,0000.0,0008.62,0004.14,0002.99
2022-05-14 05:14:00,,0825.9,5.00,0.00,30.0,29.2,00.0,38.9,31.8,04.0,0000.0,0009.17,0004.15,0003.00
2022-05-14 05:15:00,,0825.9,4.99,0.00,30.1,29.2,00.0,38.9,31.9,03.8,0000.0,0009.18,0004.11,0003.01
2022-05-14 05:16:00,,0826.0,4.99,0.00,30.1,29.2,00.0,38.9,31.9,03.7,0000.0,0009.14,0004.10,0003.05
2022-05-14 05:17:00,,0826.0,5.01,0.00,30.1,29.2,00.0,38.9,31.9,03.7,0000.0,0009.15,0004.10,0003.05
2022-05-14 05:18:00,,0826.0,4.98,0.00,30.1,29.2,00.0,39.0,31.9,03.9,0000.0,0009.67,0004.11,0003.03
2022-05-14 05:19:00,,0826.0,5.01,0.00,30.1,29.1,00.0,39.0,31.8,04.3,0000.0,0010.09,0004.17,0003.03
2022-05-14 05:20:00,,0826.0,5.00,0.00,30.0,27.1,00.0,39.0,31.4,04.5,0000.0,0011.02,0004.18,0003.01
2022-05-14 05:21:00,,0826.0,5.00,0.00,29.9,25.7,00.0,38.9,31.2,04.0,0000.0,0011.17,0004.11,0003.00
2022-05-14 05:22:00,,0826.0,5.01,0.00,29.8,25.8,00.0,38.9,31.2,04.0,0000.0,0011.17,0004.13,0002.99
2022-05-14 05:23:00,,0825.9,4.99,0.00,29.7,26.3,00.0,38.8,31.2,04.0,0000.0,0011.19,0004.13,0002.99
2022-05-14 05:24:00,,0826.0,5.01,0.00,29.7,26.7,00.0,38.8,31.2,04.1,0000.0,0011.70,0004.13,0003.00
2022-05-14 05:25:00,,0826.0,5.00,0.00,29.7,27.1,00.0,38.7,31.2,04.6,0000.0,0011.37,0004.14,0002.97
2022-05-14 05:26:00,,0826.0,5.00,0.00,29.7,27.5,00.0,38.7,31.3,04.5,0000.0,0011.78,0004.20,0002.95
2022-05-14 05:27:00,,0826.0,5.00,0.00,29.7,27.7,00.0,38.7,31.3,04.5,0000.0,0012.50,0004.19,0002.91
2022-05-14 05:28:00,,0826.0,4.99,0.00,29.7,27.9,00.0,38.7,31.3,04.4,0000.0,0012.46,0004.17,0002.88
2022-05-14 05:29:00,,0826.0,5.00,0.00,29.7,28.1,00.0,38.7,31.4,04.5,0000.0,0011.97,0004.13,0002.87
2022-05-14 05:30:00,,0826.0,5.01,0.00,29.7,28.2,00.0,38.7,31.4,04.6,0000.0,0011.50,0004.07,0002.82
2022-05-14 05:31:00,,0826.1,5.01,0.00,29.7,28.3,00.0,38.7,31.4,04.8,0000.0,0010.92,0004.02,0002.77
2022-05-14 05:32:00,,0826.0,5.00,0.00,29.7,28.3,00.0,38.7,31.4,04.8,0000.0,0010.48,0004.02,0002.73
2022-05-14 05:33:00,,0826.1,4.99,0.00,29.7,28.4,00.0,38.6,31.4,04.8,0000.0,0010.91,0003.98,0002.70
2022-05-14 05:34:00,,0826.1,5.00,0.00,29.7,28.5,00.0,38.6,31.4,04.8,0000.0,0011.03,0003.94,0002.65
2022-05-14 05:35:00,,0826.0,5.00,0.00,29.7,28.5,00.0,38.6,31.4,04.8,0000.0,0010.45,0003.88,0002.59
2022-05-14 05:36:00,,0826.0,5.00,0.00,29.7,28.6,00.0,38.6,31.4,05.0,0000.0,0010.03,0003.78,0002.55
2022-05-14 05:37:00,,0826.1,4.99,0.00,29.7,28.6,00.0,38.6,31.4,04.9,0000.0,0009.62,0003.72,0002.52
2022-05-14 05:38:00,,0826.0,5.00,0.00,29.7,28.7,00.0,38.6,31.4,04.8,0000.0,0008.63,0003.67,0002.50
2022-05-14 05:39:00,,0826.0,5.01,0.00,29.7,28.7,00.0,38.6,31.5,04.9,0000.0,0008.52,0003.63,0002.47
2022-05-14 05:40:00,,0826.0,5.00,0.00,29.8,28.7,00.0,38.7,31.5,05.0,0000.0,0008.57,0003.61,0002.42
2022-05-14 05:41:00,,0826.0,4.99,0.00,29.8,28.8,00.0,38.7,31.5,05.1,0000.0,0008.62,0003.59,0002.43
2022-05-14 05:42:00,,0826.0,5.01,0.00,29.8,28.8,00.0,38.7,31.5,05.1,0000.0,0009.05,0003.58,0002.43
2022-05-14 05:43:00,,0826.0,5.01,0.00,29.8,28.8,00.0,38.7,31.5,05.2,0000.0,0008.83,0003.52,0002.44
2022-05-14 05:44:00,,0826.1,4.98,0.00,29.8,28.8,00.0,38.7,31.6,05.1,0000.0,0008.23,0003.51,0002.43
2022-05-14 05:45:00,,0826.1,4.99,0.00,29.8,28.8,00.0,38.7,31.6,05.2,0000.0,0008.01,0003.51,0002.43
2022-05-14 05:46:00,,0826.0,5.01,0.00,29.8,28.8,00.0,38.7,31.6,05.2,0000.0,0007.98,0003.51,0002.44
2022-05-14 05:47:00,,0826.0,5.01,0.00,29.9,28.8,00.0,38.7,31.6,05.1,0000.0,0007.97,0003.52,0002.43
2022-05-14 05:48:00,,0826.0,5.01,0.00,29.9,28.9,00.0,38.7,31.6,05.0,0000.0,0008.39,0003.50,0002.42
2022-05-14 05:49:00,,0826.0,4.98,0.00,29.9,28.9,00.0,38.7,31.7,05.0,0000.0,0008.36,0003.48,0002.40
2022-05-14 05:50:00,,0826.0,5.00,0.00,29.9,28.9,00.0,38.8,31.7,05.0,0000.0,0008.49,0003.52,0002.40
2022-05-14 05:51:00,,0826.0,5.01,0.00,29.9,29.0,00.0,38.8,31.7,05.0,0000.0,0008.44,0003.51,0002.40
2022-05-14 05:52:00,,0826.0,5.00,0.00,29.9,29.0,00.0,38.8,31.7,05.1,0000.0,0008.39,0003.51,0002.39
2022-05-14 05:53:00,,0826.1,5.00,0.00,29.9,29.0,00.0,38.8,31.7,05.1,0000.0,0007.72,0003.48,0002.38
2022-05-14 05:54:00,,0826.1,5.00,0.00,30.0,29.0,00.0,38.8,31.8,05.1,0000.0,0007.58,0003.50,0002.37
2022-05-14 05:55:00,,0826.0,4.99,0.00,30.0,29.0,00.0,38.8,31.8,05.1,0000.0,0007.69,0003.52,0002.37
2022-05-14 05:56:00,,0826.0,5.01,0.00,30.0,29.0,00.0,38.8,31.8,05.1,0000.0,0007.81,0003.55,0002.38
2022-05-14 05:57:00,,0826.0,5.00,0.00,30.0,29.0,00.0,38.9,31.8,05.1,0000.0,0007.78,0003.53,0002.37
2022-05-14 05:58:00,,0826.0,5.00,0.00,30.0,29.0,00.0,38.9,31.8,05.1,0000.0,0007.71,0003.49,0002.36
2022-05-14 05:59:00,,0826.0,5.00,0.00,30.0,29.0,00.0,38.9,31.8,05.1,0000.0,0007.18,0003.47,0002.36
